Location: Oakley
(37.9974°N, 121.7125°W)
Time: 11:17:50
(UTC+00:00)

Hubble Space Telescope - Visible Passes

Search period start: 18 April 2026 00:00
Search period end: 28 April 2026 00:00
Orbit: 474 x 477 km, 28.5° (Epoch: 18 April)

Date Brightness Start Highest point End Pass type
(mag) Time Alt. Az. Time Alt. Az. Time Alt. Az.
24 Apr 2.6 03:52:14 10° S 03:53:43 12° SSE 03:53:57 12° SSE visible
25 Apr 2.7 03:21:01 10° S 03:22:30 12° SSE 03:23:58 10° SE visible
26 Apr 2.4 04:27:41 10° SW 04:29:37 18° SSW 04:29:37 18° SSW visible
27 Apr 2.2 03:56:26 10° SW 03:59:08 19° S 04:00:15 17° SSE visible
